Winnipeg, Manitoba

7:47 AM CDT on May 24, 2017 (GMT -0500)
Winnipeg International Airport

Weather History for CYWG - September, 2013

Change the Weather History Date:

Sunday, September 29, 2013

  Actual Average Record
Temperature  
Mean Temperature 53 °F -  
Max Temperature 70 °F 52 °F 85 °F (2012)
Min Temperature 36 °F 32 °F 28 °F (2015)
Degree Days  
Heating Degree Days 12    
Growing Degree Days 3 (Base 50)    
Moisture  
Dew Point 47 °F    
Average Humidity 76    
Maximum Humidity 100    
Minimum Humidity 52    
Precipitation  
Precipitation 0.04 in 0.04 in - ()
Sea Level Pressure  
Sea Level Pressure 29.62 in    
Wind  
Wind Speed 10 mph ()    
Max Wind Speed 26 mph    
Max Gust Speed 32 mph    
Visibility 14.1 miles    
Events      
Averages and records for this station are not official NWS values.
T = Trace of Precipitation, MM = Missing Value Source: Averaged Metar Reports

Daily Weather History Graph

Daily Weather History Graph

Search for Another Location

Airport or City:

Trip Planner

Search our weather history database for the weather conditions in past years. The results will help you decide how hot, cold, wet, or windy it might be!

Date:

Astronomy

Sep. 29, 2013 Rise Set
Actual Time 7:26 AM CDT 7:10 PM CDT
Civil Twilight 6:54 AM CDT 7:43 PM CDT
Nautical Twilight 6:16 AM CDT 8:20 PM CDT
Astronomical Twilight 5:38 AM CDT 8:58 PM CDT
Moon 1:42 AM CDT (9/29) 4:31 PM CDT (9/29)
Length of Visible Light 12h 48m
Length of Day
11h 44m
Waning Crescent, 27% of the Moon is Illuminated
Sep 29
Waning Crescent
Oct 4
New
Oct 11
First Quarter
Oct 18
Full
Oct 26
Last Quarter

Hourly Weather History & Observations

Time (CDT) Temp. Windchill Dew Point Humidity Pressure Visibility Wind Dir Wind Speed Gust Speed Precip Events Conditions
12:00 AM 46.4 °F 42.4 °F 44.6 °F 93% 29.70 in 15.0 mi South 8.1 mph - N/A   Scattered Clouds
1:00 AM 46 °F - 46 °F 97% 29.69 in 9 mi Calm Calm - -  
1:00 AM 44.6 °F 40.2 °F 44.6 °F 100% 29.70 in 15.0 mi South 8.1 mph - N/A   Scattered Clouds
2:00 AM 42.8 °F 38.6 °F 42.8 °F 100% 29.71 in 15.0 mi South 6.9 mph - N/A   Clear
3:00 AM 41.0 °F 37.1 °F 41.0 °F 100% 29.70 in 15.0 mi South 5.8 mph - N/A   Clear
4:00 AM 41.0 °F 38.0 °F 39.2 °F 93% 29.70 in 15.0 mi South 4.6 mph - N/A   Clear
5:00 AM 42.8 °F 38.6 °F 39.2 °F 87% 29.70 in 15.0 mi SSW 6.9 mph - N/A   Clear
6:00 AM 39.2 °F 35.9 °F 35.6 °F 87% 29.71 in 15.0 mi SSW 4.6 mph - N/A   Clear
7:00 AM 38 °F - 38 °F 98% 29.71 in 9 mi Calm Calm - -  
7:00 AM 41.0 °F 37.1 °F 37.4 °F 87% 29.71 in 15.0 mi South 5.8 mph - N/A   Partly Cloudy
8:00 AM 41.0 °F 35.8 °F 39.2 °F 93% 29.70 in 15.0 mi South 8.1 mph - N/A   Mostly Cloudy
9:00 AM 44.6 °F 39.7 °F 41.0 °F 87% 29.69 in 15.0 mi South 9.2 mph - N/A   Mostly Cloudy
10:00 AM 50.0 °F - 44.6 °F 82% 29.69 in 15.0 mi South 10.4 mph - N/A   Mostly Cloudy
11:00 AM 55.4 °F - 46.4 °F 72% 29.67 in 15.0 mi SSE 11.5 mph - N/A   Mostly Cloudy
12:00 PM 60.8 °F - 48.2 °F 63% 29.64 in 15.0 mi SSE 15.0 mph 20.7 mph N/A   Mostly Cloudy
1:00 PM 65 °F - 52 °F 52% 29.59 in 9 mi Calm Calm - -  
1:00 PM 64.4 °F - 50.0 °F 59% 29.61 in 15.0 mi SSE 18.4 mph - N/A   Mostly Cloudy
2:00 PM 66.2 °F - 51.8 °F 60% 29.59 in 15.0 mi South 19.6 mph - N/A   Mostly Cloudy
3:00 PM 69.8 °F - 53.6 °F 56% 29.55 in 15.0 mi South 26.5 mph 32.2 mph N/A   Mostly Cloudy
4:00 PM 68.0 °F - 53.6 °F 60% 29.55 in 15.0 mi South 17.3 mph 28.8 mph N/A   Overcast
5:00 PM 68.0 °F - 51.8 °F 56% 29.53 in 15.0 mi South 19.6 mph 26.5 mph N/A   Mostly Cloudy
6:00 PM 68.0 °F - 53.6 °F 60% 29.54 in 15.0 mi South 16.1 mph 23.0 mph N/A   Mostly Cloudy
7:00 PM 67 °F - 56 °F 58% 29.52 in 9 mi Calm Calm - -  
7:00 PM 66.2 °F - 53.6 °F 64% 29.53 in 15.0 mi South 17.3 mph - N/A   Overcast
8:00 PM 66.2 °F - 53.6 °F 64% 29.52 in 15.0 mi South 13.8 mph 23.0 mph N/A   Overcast
9:00 PM 64.4 °F - 51.8 °F 64% 29.51 in 15.0 mi South 18.4 mph - N/A   Overcast
10:00 PM 64.4 °F - 51.8 °F 64% 29.49 in 15.0 mi South 17.3 mph 24.2 mph N/A   Mostly Cloudy
11:00 PM 62.6 °F - 50.0 °F 63% 29.48 in 15.0 mi South 17.3 mph 24.2 mph N/A   Mostly Cloudy